IUS R/B(2), 22316

Orbit data source: Space-Track

IUS R/B(2), 22316 is space debris in GEO originally from a launch on Wed, 13 Jan 1993 UTC launched from the Air Force Eastern Test Range (AFETR). Debris objects in space refer to the collection of defunct objects orbiting the Earth. Examples of debris include non-operational satellites, rocket bodies, and fragments generated from explosions, collisions, or faulty payload assembly.

Not visible in the next 10 days
Identifier
22316, 1993-003D
Orbit
GEO
Country
Flag of USUS
Related business
Manufacturer
UTC CSD
Mission
Spacecraft
Bus & Motor
ORBUS 6, Unknown motor
Mass
~1,100 kg wet, ~1,100 kg dry
Launch date (UTC)
1993-01-13 (33 years ago)
Launch vehicle
Unknown
Launch site
Air Force Eastern Test Range (AFETR)
Object type
Payload
Rocket body
Debris
Shape & HBR
Cyl, 1.4 m
Radar Cross Section
8.086 m², Large (>1 m²)

Expand to show TLE details & history
Last TLE update: 17 hours ago

TLE from 17 hours ago
0 IUS R/B(2)
1 22316U 93003D   25346.57337435  .00000058  00000-0  00000-0 0  9999
2 22316  11.9677 345.5673 0067249 121.8913 240.0012  1.00095113125325
Epoch: 2025-12-12T13:45Z
TLE epoch observation values (Epoch: 2025-12-12T13:45:39.543Z)
Latitude
0.25786°
Longitude
58.83049°
Altitude
35,978.444 km
Speed
3.063 km/s
True Right ascension
23h 07m 01s
True Declination
0° 15' 27"
Sunlit
Object was in daylight at epoch
Visualization orbit readout
Latitude
Unknown
Longitude
Unknown
Altitude
Unknown
Speed
Unknown
Apparent Right ascension
Unknown
Apparent Declination
Unknown
Sunlit
N/A
Visualization observer readout
Local Sidereal Time
05:23:55
Azimuth
Unknown
Elevation
Unknown
Doppler factor
Unknown
Orbital elements
Apogee altitude
36,121.091 km
Perigee altitude
35,553.303 km
Semi-major axis
42,215.334 km
Eccentricity
0.00672
Inclination
11.9677°
RAAN
345.5673°
Arg. of periapsis
121.8913°
True anomaly
239.33663°
Mean anomaly
240.0012°
Eccentric anomaly
239.66863°
Mean motion
0.25023 °/min
Orbital period
1,438.68 mins
BSTAR
0
Loading maneuver chart data...
Computing Atmospheric mass density...
Loading historical data...
Loading historical data...
Loading historical data...
Loading historical data...
Loading historical data...
Loading historical data...
Loading historical data...
Other satellites on launch #3 in the year 1993 (1993-01-13 UTC)

Documentation

Showing up to 5 results
|